Hourly Data Report for July 01, 2021

KUGLUKTUK A
NUNAVUT
Current Station Operator: NAVCAN

67°49'00.000" N
115°08'38.000" W
22.60 m
2300903
71938
YCO

Download Data

Hourly Data (July 2021)
Hourly Data Report for July 1, 2021
TIME
LST
Temp Definition
°C
Dew Point Definition
°C
Rel Hum Definition
%
Precip. Amount Definition
mm

Wind Dir Definition
10's deg

Wind Spd Definition
km/h
Visibility Definition
km
Stn Press Definition
kPa
Hmdx Definition


Wind Chill Definition


Weather Definition


00:00 9.0 5.1 77   8 13 24.1 101.45     LegendNANA
01:00 8.3 5.1 80   9 10 24.1 101.47     LegendNANA
02:00 8.4 5.5 82   36 3 24.1 101.47     Cloudy
03:00 8.6 5.8 82   9 5 24.1 101.50     LegendNANA
04:00 8.7 5.7 82   36 2 24.1 101.54     LegendNANA
05:00 8.7 5.8 82   4 7 24.1 101.44     Mostly Cloudy
06:00 8.9 6.0 82   8 8 24.1 101.48     LegendNANA
07:00 8.4 4.7 77   9 13 24.1 101.53     LegendNANA
08:00 7.6 4.4 80   9 13 24.1 101.52     Mostly Cloudy
09:00 7.2 5.3 88   2 12 24.1 101.50     LegendNANA
10:00 7.5 5.2 85   1 12 24.1 101.54     LegendNANA
11:00 8.0 4.9 81   7 5 24.1 101.56     Mostly Cloudy
12:00 9.9 5.2 72   2 5 24.1 101.58     LegendNANA
13:00 11.5 4.5 62   10 15 24.1 101.55     LegendNANA
14:00 12.4 5.0 60   7 12 24.1 101.58     Mostly Cloudy
15:00 13.4 5.5 58   10 15 24.1 101.59     LegendNANA
16:00 13.4 5.2 57   7 13 24.1 101.62     LegendNANA
17:00 11.8 4.4 60   5 12 24.1 101.61     Mainly Clear
18:00 10.9 4.0 63   7 16 24.1 101.61     LegendNANA
19:00 9.3 3.5 67   8 13 24.1 101.56     LegendNANA
20:00 9.8 4.5 69   8 12 24.1 101.58     Cloudy
21:00 9.3 4.6 72   8 12 24.1 101.55     LegendNANA
22:00 8.2 3.9 74   8 13 24.1 101.53     LegendNANA
23:00 8.7 5.4 80   12 13 24.1 101.48     Cloudy

Notes on Data Quality.

Legend

  • E = Estimated
  • M = Missing
  • NA = Not Available*
  • [empty] = Indicates an unobserved value
Date modified: